COSMOS 1455 (14032 NORAD) Tracking and Keplerian Element Data

This shows tracking and keplerian element data for the satellite.

Feedback or suggestion? Click here.




ElementValue
Catalog14032
NameCOSMOS 1455
Epoch Orbit22575
Epoch Day12.68078012
Epoch Year2024
RAAN226.2006
Inclination82.5075
Eccentricity0.0011687
Argument of Perigee181.3323
Mean Anonmoly178.7889
Mean Motion15.31622969
Decay Rate0.0001496
L11 14032U 83037A 24012.68078012 .00014960 00000+0 48768-3 0 9997
L22 14032 82.5075 226.2006 0011687 181.3323 178.7889 15.31622969225754



Live tracking and technical data element details for COSMOS 1455 (NORAD 14032). COSMOS 1455 can be tracked NOW for your location showing map with azimuth and elevation plus other details from your city location.







IsCatalogInMostPopularTable: catalog: 14032, numindb: 344
Update: records affected: 1



GetName: 14032 COSMOS 1455

Hit Count: updated at: Fri, 19 Apr 2024 12:21:30 GMT